Flag for Netherlands Weather past 2 weeks in Apeldoorn, Netherlands

52 °F

Light rain. Passing clouds.

Feels Like: 45 °F
Forecast: 43 / 53 °F
Wind: 25 mph from Southwest

Location: Deelen

Current Time: Nov 29, 2015 at 5:50:06 PM

Latest Report: Nov 29, 2015 at 4:55 PM

Visibility: 4 mi

Pressure: 29.65 "Hg

Humidity: 82%

Dew point: 46 °F

Location of ApeldoornLocation

Historic Weather in Apeldoorn — Graph


Apeldoorn temperature yesterday

Maximum temperature yesterday: 45 °F (at 11:55 AM)
Minimum temperature yesterday: 36 °F (at 8:25 AM)
Average temperature yesterday: 42 °F

Past Weeks' High & Low Weather Summary

High59 °F (Nov 17, 8:25 PM)100% (Nov 14, 6:55 PM)30.21 "Hg (Nov 14, 6:55 PM)
Low27 °F (Nov 23, 8:25 AM)66% (Nov 23, 1:55 PM)29.33 "Hg (Nov 21, 6:25 AM)
Average44 °F90%29.80 "Hg
* Reported Nov 14 4:25 PM — Nov 29 4:25 PM, Apeldoorn, Weather by CustomWeather, © 2015

Note: Actual official high and low records may vary slightly from our data, if they occured in-between our weather recording intervals... More about our weather records


Apeldoorn weather history for previous 24 hours

Time TempWeatherWind HumidityBarometerVisibility
4:25 PM
Sun, Nov 29
52 °FBroken clouds.28 mph82%29.65 "HgN/A
3:55 PM52 °FBroken clouds.25 mph82%29.65 "HgN/A
3:25 PM52 °FDrizzle. Partly sunny.21 mph82%29.65 "Hg5 mi
2:55 PM52 °FBroken clouds.22 mph88%29.65 "HgN/A
2:25 PM50 °FCloudy.22 mph94%29.65 "HgN/A
1:55 PM50 °FDrizzle. Cloudy.20 mph94%29.68 "Hg5 mi
1:25 PM48 °FSprinkles. Broken clouds.15 mph100%29.68 "Hg4 mi
12:55 PM48 °FRain showers. Broken clouds.14 mph94%29.71 "Hg4 mi
12:25 PM50 °FDrizzle. Broken clouds.18 mph88%29.71 "HgN/A
11:55 AM50 °FCloudy.16 mph88%29.74 "HgN/A
11:25 AM50 °FMore clouds than sun.15 mph88%29.74 "HgN/A
10:25 AM50 °FBroken clouds.20 mph88%29.71 "HgN/A
9:55 AM48 °FBroken clouds.17 mph94%29.71 "HgN/A
9:25 AM48 °FCloudy.18 mph94%29.71 "HgN/A
8:55 AM48 °FDrizzle. Partly sunny.14 mph94%29.71 "Hg6 mi
7:55 AM48 °FPartly cloudy.18 mph94%29.68 "HgN/A
7:25 AM48 °FLight rain. Partly cloudy.17 mph94%29.68 "Hg6 mi
6:55 AM48 °FPartly cloudy.18 mph94%29.71 "HgN/A
5:55 AM46 °FMostly cloudy.16 mph100%29.68 "HgN/A
5:25 AM46 °FPassing clouds.18 mph93%29.68 "HgN/A
4:55 AM46 °FOvercast.16 mph93%29.68 "HgN/A
4:25 AM46 °FPartly cloudy.16 mph93%29.68 "HgN/A
3:55 AM46 °FLight rain. Partly cloudy.15 mph93%29.68 "HgN/A
3:25 AM45 °FSprinkles. Passing clouds.10 mph100%29.68 "Hg4 mi
2:55 AM45 °FRain showers. Partly cloudy.13 mph93%29.68 "Hg4 mi
2:25 AM45 °FDrizzle. Mostly cloudy.18 mph93%29.68 "HgN/A
1:55 AM45 °FMostly cloudy.21 mph93%29.68 "HgN/A
1:25 AM45 °FOvercast.17 mph87%29.68 "HgN/A
12:55 AM45 °FOvercast.23 mph87%29.68 "HgN/A
12:25 AM45 °FOvercast.23 mph87%29.68 "HgN/A
11:55 PM
Sat, Nov 28
45 °FMostly cloudy.25 mph87%29.68 "HgN/A
10:55 PM43 °FSprinkles. Passing clouds.21 mph93%29.71 "HgN/A
10:25 PM43 °FDrizzle. Mostly cloudy.23 mph87%29.71 "HgN/A
9:25 PM43 °FMostly cloudy.21 mph87%29.74 "HgN/A
8:55 PM43 °FPartly cloudy.18 mph93%29.77 "HgN/A
8:25 PM43 °FMostly cloudy.21 mph87%29.80 "HgN/A
7:55 PM43 °FDrizzle. Overcast.21 mph87%29.80 "HgN/A
7:25 PM43 °FDrizzle. Overcast.18 mph81%29.83 "HgN/A
6:55 PM41 °FLight rain. Mostly cloudy.17 mph87%29.83 "HgN/A
6:25 PM43 °FDrizzle. Mostly cloudy.16 mph76%29.86 "HgN/A
5:55 PM43 °FPassing clouds.16 mph76%29.86 "HgN/A
5:25 PM43 °FPassing clouds.15 mph76%29.86 "HgN/A
Weather by CustomWeather, © 2015

See weather overviewHow to use our weather pages